Regional Weather Roundup
Issued by NWS Memphis, TN

Home | Current Version | Previous Version | Text Only | Print | Product List | Glossary On
Versions: 1 2 3 4 5 6 7 8 9 10 11 12 13 14 15 16 17 18 19 20 21 22 23 24 25 26 27 28 29 30 31 32 33 34 35 36 37 38 39 40 41 42 43 44 45 46 47 48 49 50
000
ASUS44 KMEG 010710
RWRMEG
MEMPHIS CWA HOURLY WEATHER ROUNDUP
NATIONAL WEATHER SERVICE MEMPHIS TN
200 AM CDT SAT OCT 01 2016

...WEST TENNESSEE...

CITY           SKY/WX    TMP DP  RH WIND       PRES   REMARKS
MEMPHIS INTL   PTCLDY    63  57  81 CALM      30.06S
NWS MEMPHIS      N/A     58 N/A N/A MISG        N/A
JACKSON          N/A    N/A N/A N/A MISG      30.04F
BOLIVAR        CLEAR     54  54 100 CALM      30.05S
LEXINGTON      CLEAR     55  55 100 CALM      30.04S
DYERSBURG      CLEAR    N/A N/A N/A MISG        N/A
UNION CITY     PTCLDY    55  55 100 SW3       30.03R
PARIS          MOCLDY    54  54 100 CALM      30.04R VSB 1
HUNTINGDON     CLEAR     57  57 100 CALM      30.03R


...EASTERN ARKANSAS...

CITY           SKY/WX    TMP DP  RH WIND       PRES   REMARKS
JONESBORO      CLOUDY    64  57  78 CALM      30.05F
WEST MEMPHIS   CLEAR     56  54  93 CALM      30.05S
BATESVILLE     CLEAR     57  54  88 W3        30.08S
NEWPORT        CLEAR     60  57  89 W5        30.07S
WALNUT RIDGE   CLOUDY    64  55  72 W3        30.06S
BLYTHEVILLE    CLEAR     60  57  89 W5        30.05S
SEARCY         CLEAR     57  56  96 CALM      30.09S
STUTTGART      CLEAR     61  52  72 CALM      30.08F
PINE BLUFF     CLEAR     57  56  96 CALM      30.08S
MONTICELLO     CLEAR     57  55  93 CALM      30.07S


...NORTH MISSISSIPPI...

CITY           SKY/WX    TMP DP  RH WIND       PRES   REMARKS
TUPELO         CLEAR     57  52  83 CALM      30.06R
OXFORD         CLEAR     54  50  87 CALM      30.08S
BATESVILLE     CLEAR     52  51  95 CALM      30.08R
TUNICA         CLEAR     52  50  93 CALM      30.08R
CLARKSDALE     CLEAR     55  55 100 CALM      30.07S
CORINTH        CLEAR     54  52  94 CALM      30.05S FOG
GREENWOOD      CLEAR     54  51  90 CALM      30.07R
COLUMBUS       CLEAR     55  53  92 NW2       30.06R
STARKVILLE     CLEAR     52  52 100 CALM      30.09R
GOLDEN TRIANGL CLEAR     54  46  76 CALM      30.06S


...SOUTHEAST MISSOURI...

CITY           SKY/WX    TMP DP  RH WIND       PRES   REMARKS
KENNETT        CLEAR     57  55  94 W5        30.03S
WEST PLAINS    CLEAR     56  52  86 NW3       30.10S
POPLAR BLUFF   CLEAR     57  57 100 CALM      30.04S
CAPE GIRARDEAU CLOUDY    59  57  93 W6        30.02S


...NORTHWEST ALABAMA...

CITY           SKY/WX    TMP DP  RH WIND       PRES   REMARKS
MUSCLE SHOALS  CLEAR     54  50  86 CALM      30.08R


...MIDDLE TENNESSEE...

CITY           SKY/WX    TMP DP  RH WIND       PRES   REMARKS
NASHVILLE      MOCLDY    57  55  93 SW5       30.05S
CLARKSVILLE    CLOUDY    59  57  93 S5        30.03S
COLUMBIA       CLOUDY   N/A N/A N/A CALM      30.05S


...WESTERN KENTUCKY...

CITY           SKY/WX    TMP DP  RH WIND       PRES   REMARKS
PADUCAH        CLOUDY    62  59  90 W6        30.00S
FORT CAMPBELL  CLOUDY    59  59 100 S7        30.01F


...CENTRAL ARKANSAS...

CITY           SKY/WX    TMP DP  RH WIND       PRES   REMARKS
LITTLE ROCK    PTCLDY    59  59 100 CALM      30.08F


SKY/WX REPORTED AS FAIR MEANS FEW OR NO CLOUDS BELOW
12 THOUSAND FEET.




USA.gov is the U.S. government's official web portal to all federal, state and local government web resources and services.